Weather in Rishiri

Japan     45°10′41″N   141°13′44″E
temp.,
°C
wind,
m/s
gust,
m/s
humid.,
%
clouds,
%
prec.,
mm/h
press.,
hPa
HPBL,
m
26 september, sun
sun2600:00+17wsw22625 0.0 1026696
03:00+17ssw1264100 0.0 1026760
06:00+17sse1267100 0.0 1025620
09:00+17sw1267100 0.0 1025706
12:00+18wsw3465100 0.0 10241025
15:00+18sw4466100 0.0 10231012
18:00+18ssw2364100 0.0 1023813
21:00+17ssw22646 0.0 1023622
27 september, mon
mon2700:00+17sw23640 0.0 1022464
03:00+17ssw23650 0.0 1022644
06:00+17s24651 0.0 1022747
09:00+18s357396 0.1 1022926
12:00+18ssw357215 0.1 1021864
15:00+18s337037 0.1 1020619
18:00+18s1269100 0.0 1020283
21:00+18sse2269100 0.0 1020317
28 september, tue
tue2800:00+18s4574100 0.0 1019441
03:00+18ssw4777100 0.1 1019809
06:00+18ssw4675100 0.1 1019892
09:00+18ssw5874100 0.1 1019868
12:00+18ssw5774100 0.0 1018791
15:00+18ssw4674100 0.0 1018717
18:00+19ssw2375100 0.0 1018303
21:00+19ssw247974 0.0 1018213
29 september, wed
wed2900:00+19s45805 0.0 1017346
03:00+18ssw35766 0.0 1018545
06:00+18s34746 0.0 1018498
09:00+17s337945 0.0 1017410
12:00+17s3375100 0.0 1016322
15:00+18s2272100 0.0 1015184
18:00+19sse2270100 0.0 101577
21:00+18se3372100 0.0 1013146
30 september, thu
thu3000:00+18s3475100 0.0 1011373
03:00+17se2275100 0.4 1010274
06:00+17se4481100 0.8 1008360
09:00+15ese7795100 16.9 1005454
12:00+17sse61289100 19.5 1003962
15:00+17sse5791100 25.3 1001470
18:00+18nw899572 8.1 1001393
21:00+17nw788897 8.2 1006586